Location: Unspecified
(42.3650°N, 71.1030°W)
Time: 10:05:39
(UTC+00:00)

Explorer 11/Cluster Stage 4 - All Passes

Search period start: 21 June 2024 00:00
Search period end: 01 July 2024 00:00
Orbit: 465 x 1217 km, 28.8° (Epoch: 20 June)

Date Brightness Start Highest point End Pass type
(mag) Time Alt. Az. Time Alt. Az. Time Alt. Az.
21 Jun - 00:15:26 10° S 00:18:53 13° SSE 00:22:15 10° SE daylight
21 Jun - 02:00:35 10° SW 02:06:31 24° S 02:12:00 10° ESE visible
21 Jun - 03:48:18 10° WSW 03:54:15 26° S 03:59:30 10° SE visible
21 Jun - 05:37:28 10° WSW 05:41:38 17° SSW 05:45:22 10° SSE night (unlit)
21 Jun - 23:57:00 10° S 00:00:55 14° SSE 00:04:49 10° SE daylight
22 Jun - 01:42:25 10° SW 01:48:35 25° S 01:54:21 10° ESE visible
22 Jun - 03:30:11 10° WSW 03:36:21 27° S 03:41:52 10° SE visible
22 Jun - 05:19:26 10° WSW 05:23:47 17° SSW 05:27:43 10° SSE visible
22 Jun - 23:38:40 10° S 23:42:57 15° SSE 23:47:13 10° ESE daylight
23 Jun - 01:24:18 10° SW 01:30:37 26° S 01:36:38 10° ESE visible
23 Jun - 03:12:06 10° WSW 03:18:26 27° S 03:24:10 10° SE visible
23 Jun - 05:01:24 10° WSW 05:05:55 18° SSW 05:10:01 10° SSE visible
23 Jun - 23:20:27 10° SSW 23:24:58 16° SSE 23:29:32 10° ESE daylight
24 Jun - 01:06:14 10° SW 01:12:39 27° S 01:18:52 10° ESE visible
24 Jun - 02:54:03 10° WSW 03:00:29 28° S 03:06:26 10° SE visible
24 Jun - 04:43:22 10° WSW 04:48:00 18° SSW 04:52:15 10° SSE visible
24 Jun - 23:02:19 10° SSW 23:06:59 17° SSE 23:11:46 10° ESE daylight
25 Jun - 00:48:12 10° SW 00:54:39 28° S 01:01:02 10° ESE visible
25 Jun - 02:36:01 10° WSW 02:42:32 28° S 02:48:38 10° SE visible
25 Jun - 04:25:23 10° WSW 04:30:04 17° SSW 04:34:26 10° SSE visible
25 Jun - 22:44:15 10° SSW 22:48:59 18° SSE 22:53:56 10° ESE daylight
26 Jun - 00:30:12 10° SW 00:36:39 28° S 00:43:09 10° ESE daylight
26 Jun - 02:18:01 10° WSW 02:24:32 28° S 02:30:47 10° SE visible
26 Jun - 04:07:25 10° WSW 04:12:07 17° SSW 04:16:33 10° SSE visible
26 Jun - 22:26:15 10° SSW 22:31:00 18° SSE 22:36:01 10° ESE daylight
27 Jun - 00:12:16 10° SW 00:18:39 28° S 00:25:13 10° ESE daylight
27 Jun - 02:00:03 10° WSW 02:06:32 28° S 02:12:52 10° SE visible
27 Jun - 03:49:30 10° WSW 03:54:09 17° SSW 03:58:35 10° SSE visible
27 Jun - 22:08:20 10° SSW 22:13:02 19° SSE 22:18:04 10° ESE daylight
27 Jun - 23:54:22 10° SW 00:00:39 29° S 00:07:14 10° ESE daylight
28 Jun - 01:42:07 10° WSW 01:48:32 27° S 01:54:54 10° SE visible
28 Jun - 03:31:37 10° WSW 03:36:09 16° SSW 03:40:32 10° S visible
28 Jun - 21:50:27 10° SSW 21:55:04 19° SSE 22:00:04 10° ESE daylight
28 Jun - 23:36:30 10° SW 23:42:39 28° S 23:49:13 10° ESE daylight
29 Jun - 01:24:14 10° WSW 01:30:31 27° S 01:36:54 10° SE visible
29 Jun - 03:13:49 10° WSW 03:18:09 16° SSW 03:22:25 10° S visible
29 Jun - 21:32:38 10° SSW 21:37:07 19° SSE 21:42:02 10° ESE daylight
29 Jun - 23:18:42 10° SW 23:24:40 28° S 23:31:09 10° ESE daylight
30 Jun - 01:06:24 10° WSW 01:12:31 26° S 01:18:49 10° SE visible
30 Jun - 02:56:04 10° SW 03:00:09 15° SSW 03:04:11 10° S visible
30 Jun - 21:14:52 10° SSW 21:19:11 19° SSE 21:23:58 10° ESE daylight
30 Jun - 23:00:56 10° SW 23:06:42 28° S 23:13:03 10° ESE daylight
